• în Republica Moldova
  • Lista ţărilor
  • Pe 7 zile
  • Temperatura apei
  • Hartă satelitară
  • Meteo pe hartă
  • Widget-uri
  • user-avatar
    Intrare

    Meteo pe oră la Sumgait

    Astăzi, 23 August, Miercuri

    Timp Temperatura Precipitaţii Vânt Presiune Umiditate
    00:00 +29°C° 0 mm 2 m/s 735 mmHg 30%
    01:00 +29°C° 0 mm 2 m/s 735 mmHg 30%
    02:00 +28°C° 0 mm 2 m/s 735 mmHg 30%
    03:00 +28°C° 0 mm 2 m/s 735 mmHg 30%
    04:00 +28°C° 0 mm 2 m/s 735 mmHg 31%
    05:00 +28°C° 0 mm 3 m/s 736 mmHg 32%
    06:00 +28°C° 0 mm 3 m/s 736 mmHg 33%
    07:00 +30°C° 0 mm 4 m/s 736 mmHg 32%
    08:00 +32°C° 0 mm 5 m/s 736 mmHg 31%
    09:00 +34°C° 0 mm 6 m/s 737 mmHg 32%
    10:00 +34°C° 0 mm 6 m/s 737 mmHg 31%
    11:00 +34°C° 0 mm 7 m/s 737 mmHg 30%
    12:00 +35°C° 0 mm 7 m/s 737 mmHg 29%
    13:00 +35°C° 0 mm 7 m/s 737 mmHg 27%
    14:00 +35°C° 0 mm 7 m/s 737 mmHg 26%
    15:00 +35°C° 0 mm 6 m/s 737 mmHg 24%
    16:00 +34°C° 0 mm 6 m/s 736 mmHg 24%
    17:00 +34°C° 0 mm 5 m/s 736 mmHg 24%
    18:00 +33°C° 0 mm 4 m/s 736 mmHg 24%
    19:00 +32°C° 0 mm 4 m/s 737 mmHg 25%
    20:00 +31°C° 0 mm 3 m/s 737 mmHg 26%
    21:00 +30°C° 0 mm 2 m/s 737 mmHg 28%
    22:00 +30°C° 0 mm 3 m/s 737 mmHg 28%
    23:00 +30°C° 0 mm 3 m/s 737 mmHg 28%

    Mâine, 24 August, Joi

    Timp Temperatura Precipitaţii Vânt Presiune Umiditate
    00:00 +29°C° 0 mm 3 m/s 737 mmHg 28%
    01:00 +29°C° 0 mm 3 m/s 738 mmHg 30%
    02:00 +29°C° 0 mm 3 m/s 738 mmHg 32%
    03:00 +28°C° 0 mm 3 m/s 738 mmHg 34%
    04:00 +28°C° 0 mm 4 m/s 738 mmHg 36%
    05:00 +28°C° 0 mm 4 m/s 739 mmHg 38%
    06:00 +28°C° 0 mm 4 m/s 739 mmHg 40%
    07:00 +29°C° 0 mm 5 m/s 739 mmHg 37%
    08:00 +30°C° 0 mm 5 m/s 740 mmHg 34%
    09:00 +33°C° 0 mm 6 m/s 740 mmHg 31%
    10:00 +33°C° 0 mm 6 m/s 740 mmHg 29%
    11:00 +34°C° 0 mm 6 m/s 740 mmHg 28%
    12:00 +35°C° 0 mm 6 m/s 740 mmHg 26%
    13:00 +34°C° 0 mm 6 m/s 740 mmHg 26%
    14:00 +34°C° 0 mm 6 m/s 740 mmHg 25%
    15:00 +34°C° 0 mm 6 m/s 739 mmHg 24%
    16:00 +34°C° 0 mm 6 m/s 739 mmHg 25%
    17:00 +33°C° 0 mm 5 m/s 739 mmHg 26%
    18:00 +32°C° 0 mm 5 m/s 739 mmHg 27%
    19:00 +30°C° 0 mm 5 m/s 739 mmHg 28%
    20:00 +30°C° 0 mm 4 m/s 740 mmHg 29%
    21:00 +29°C° 0 mm 4 m/s 740 mmHg 30%
    22:00 +29°C° 0 mm 4 m/s 740 mmHg 30%
    23:00 +28°C° 0 mm 5 m/s 740 mmHg 30%

    Poimâine, 25 August, Vineri

    Timp Temperatura Precipitaţii Vânt Presiune Umiditate
    00:00 +28°C° 0 mm 5 m/s 740 mmHg 30%
    01:00 +28°C° 0 mm 5 m/s 740 mmHg 30%
    02:00 +27°C° 0 mm 5 m/s 740 mmHg 29%
    03:00 +27°C° 0 mm 5 m/s 740 mmHg 29%
    04:00 +27°C° 0 mm 5 m/s 740 mmHg 29%
    05:00 +27°C° 0 mm 5 m/s 740 mmHg 29%
    06:00 +27°C° 0 mm 6 m/s 740 mmHg 29%
    07:00 +29°C° 0 mm 6 m/s 740 mmHg 27%
    08:00 +30°C° 0 mm 7 m/s 741 mmHg 25%
    09:00 +33°C° 0 mm 7 m/s 741 mmHg 23%
    10:00 +33°C° 0 mm 7 m/s 741 mmHg 23%
    11:00 +34°C° 0 mm 8 m/s 741 mmHg 23%
    12:00 +35°C° 0 mm 8 m/s 741 mmHg 23%
    13:00 +35°C° 0 mm 8 m/s 740 mmHg 25%
    14:00 +34°C° 0 mm 8 m/s 740 mmHg 27%
    15:00 +34°C° 0 mm 9 m/s 740 mmHg 29%
    16:00 +33°C° 0 mm 8 m/s 740 mmHg 32%
    17:00 +32°C° 0 mm 8 m/s 740 mmHg 35%
    18:00 +31°C° 0 mm 8 m/s 740 mmHg 38%
    19:00 +31°C° 0 mm 8 m/s 740 mmHg 39%
    20:00 +29°C° 0 mm 7 m/s 740 mmHg 40%
    21:00 +28°C° 0 mm 7 m/s 741 mmHg 40%
    22:00 +28°C° 0 mm 7 m/s 740 mmHg 40%
    23:00 +28°C° 0 mm 7 m/s 740 mmHg 40%

    26 August, Sâmbătă

    Timp Temperatura Precipitaţii Vânt Presiune Umiditate
    00:00 +28°C° 0 mm 7 m/s 740 mmHg 40%
    01:00 +27°C° 0 mm 7 m/s 740 mmHg 41%
    02:00 +27°C° 0 mm 7 m/s 740 mmHg 42%
    03:00 +27°C° 0 mm 7 m/s 740 mmHg 43%
    04:00 +26°C° 0 mm 7 m/s 740 mmHg 44%
    05:00 +26°C° 0 mm 7 m/s 740 mmHg 46%
    06:00 +26°C° 0 mm 8 m/s 741 mmHg 47%
    07:00 +27°C° 0 mm 8 m/s 741 mmHg 44%
    08:00 +29°C° 0 mm 8 m/s 741 mmHg 40%
    09:00 +31°C° 0 mm 8 m/s 741 mmHg 37%
    10:00 +32°C° 0 mm 9 m/s 741 mmHg 35%
    11:00 +33°C° 0 mm 9 m/s 741 mmHg 34%
    12:00 +34°C° 0 mm 9 m/s 740 mmHg 32%
    13:00 +33°C° 0 mm 9 m/s 740 mmHg 35%
    14:00 +33°C° 0 mm 10 m/s 740 mmHg 37%
    15:00 +33°C° 0 mm 10 m/s 739 mmHg 40%
    16:00 +32°C° 0 mm 10 m/s 739 mmHg 44%
    17:00 +31°C° 0 mm 10 m/s 739 mmHg 48%
    18:00 +29°C° 0 mm 10 m/s 739 mmHg 52%
    19:00 +28°C° 0 mm 10 m/s 740 mmHg 54%
    20:00 +28°C° 0 mm 10 m/s 740 mmHg 56%
    21:00 +27°C° 0 mm 10 m/s 740 mmHg 59%
    22:00 +27°C° 0 mm 9 m/s 740 mmHg 59%
    23:00 +27°C° 0 mm 8 m/s 740 mmHg 59%

    27 August, Duminică

    Timp Temperatura Precipitaţii Vânt Presiune Umiditate
    00:00 +26°C° 0 mm 8 m/s 739 mmHg 59%
    01:00 +26°C° 0 mm 7 m/s 739 mmHg 60%
    02:00 +26°C° 0 mm 7 m/s 739 mmHg 60%
    03:00 +24°C° 0 mm 6 m/s 739 mmHg 61%
    04:00 +24°C° 0 mm 6 m/s 739 mmHg 61%
    05:00 +24°C° 0 mm 6 m/s 739 mmHg 60%
    06:00 +24°C° 0 mm 6 m/s 739 mmHg 60%
    07:00 +26°C° 0 mm 6 m/s 740 mmHg 55%
    08:00 +28°C° 0 mm 7 m/s 740 mmHg 50%
    09:00 +29°C° 0 mm 7 m/s 740 mmHg 45%
    10:00 +30°C° 0 mm 7 m/s 740 mmHg 44%
    11:00 +32°C° 0 mm 7 m/s 740 mmHg 42%
    12:00 +32°C° 0 mm 7 m/s 739 mmHg 41%
    13:00 +32°C° 0 mm 7 m/s 739 mmHg 42%
    14:00 +32°C° 0 mm 8 m/s 739 mmHg 43%
    15:00 +32°C° 0 mm 8 m/s 738 mmHg 44%
    16:00 +31°C° 0 mm 8 m/s 739 mmHg 47%
    17:00 +29°C° 0 mm 8 m/s 739 mmHg 50%
    18:00 +29°C° 0 mm 8 m/s 739 mmHg 52%
    19:00 +28°C° 0 mm 7 m/s 739 mmHg 53%
    20:00 +28°C° 0 mm 7 m/s 739 mmHg 54%
    21:00 +27°C° 0 mm 7 m/s 739 mmHg 55%
    22:00 +27°C° 0 mm 6 m/s 739 mmHg 55%
    23:00 +27°C° 0 mm 6 m/s 739 mmHg 54%

    28 August, Luni

    Timp Temperatura Precipitaţii Vânt Presiune Umiditate
    00:00 +27°C° 0 mm 6 m/s 739 mmHg 53%
    01:00 +26°C° 0 mm 5 m/s 739 mmHg 54%
    02:00 +26°C° 0 mm 5 m/s 739 mmHg 54%
    03:00 +25°C° 0 mm 5 m/s 739 mmHg 55%
    04:00 +25°C° 0 mm 5 m/s 739 mmHg 54%
    05:00 +25°C° 0 mm 4 m/s 739 mmHg 53%
    06:00 +25°C° 0 mm 4 m/s 739 mmHg 52%
    07:00 +27°C° 0 mm 4 m/s 739 mmHg 46%
    08:00 +28°C° 0 mm 5 m/s 739 mmHg 40%
    09:00 +30°C° 0 mm 5 m/s 740 mmHg 34%
    10:00 +30°C° 0 mm 5 m/s 739 mmHg 33%
    11:00 +32°C° 0 mm 5 m/s 739 mmHg 32%
    12:00 +33°C° 0 mm 5 m/s 739 mmHg 30%
    13:00 +33°C° 0 mm 5 m/s 738 mmHg 31%
    14:00 +33°C° 0 mm 5 m/s 738 mmHg 31%
    15:00 +33°C° 0 mm 6 m/s 738 mmHg 32%
    16:00 +32°C° 0 mm 6 m/s 738 mmHg 34%
    17:00 +30°C° 0 mm 5 m/s 738 mmHg 37%
    18:00 +30°C° 0 mm 5 m/s 738 mmHg 39%
    19:00 +29°C° 0 mm 5 m/s 738 mmHg 41%
    20:00 +28°C° 0 mm 4 m/s 738 mmHg 42%
    21:00 +28°C° 0 mm 4 m/s 738 mmHg 44%
    22:00 +27°C° 0 mm 3 m/s 738 mmHg 44%
    23:00 +27°C° 0 mm 3 m/s 737 mmHg 45%
    Arată mai mult